Satellite: RAX-2 Catalog number: 37853 Epoch time: 12306.77598378 Element set: 329 Inclination: 101.7105 deg RA of node: 049.6732 deg Eccentricity: 0.0241290 Arg of perigee: 317.8178 deg Mean anomaly: 040.4699 deg Mean motion: 14.81228841 rev/day Decay rate: 3.648e-05 rev/day^2 Epoch rev: 5475 Checksum: 329
Satellite: AUBIESAT Catalog number: 37854 Epoch time: 12306.28561631 Element set: 328 Inclination: 101.7064 deg RA of node: 049.3910 deg Eccentricity: 0.0242993 Arg of perigee: 318.6800 deg Mean anomaly: 039.6225 deg Mean motion: 14.81719583 rev/day Decay rate: 3.842e-05 rev/day^2 Epoch rev: 5468 Checksum: 306
Satellite: HRBE Catalog number: 37855 Epoch time: 12306.24766839 Element set: 324 Inclination: 101.7078 deg RA of node: 049.2424 deg Eccentricity: 0.0244228 Arg of perigee: 319.0672 deg Mean anomaly: 039.2424 deg Mean motion: 14.81507655 rev/day Decay rate: 3.420e-05 rev/day^2 Epoch rev: 5467 Checksum: 298
Satellite: RS-39 Catalog number: 38051 Epoch time: 12306.90246223 Element set: 850 Inclination: 051.6383 deg RA of node: 222.4610 deg Eccentricity: 0.0013791 Arg of perigee: 162.8796 deg Mean anomaly: 314.2932 deg Mean motion: 15.26996080 rev/day Decay rate: 1.1726e-04 rev/day^2 Epoch rev: 4299 Checksum: 304
Satellite: E-STAR Catalog number: 38079 Epoch time: 12306.57756466 Element set: 612 Inclination: 069.4810 deg RA of node: 359.4855 deg Eccentricity: 0.0696386 Arg of perigee: 073.0773 deg Mean anomaly: 294.5443 deg Mean motion: 14.25346157 rev/day Decay rate: 2.7792e-04 rev/day^2 Epoch rev: 3708 Checksum: 348
Satellite: GOLIAT Catalog number: 38085 Epoch time: 12306.25284700 Element set: 579 Inclination: 069.4836 deg RA of node: 001.0379 deg Eccentricity: 0.0702743 Arg of perigee: 073.9511 deg Mean anomaly: 293.7635 deg Mean motion: 14.24076182 rev/day Decay rate: 2.9262e-04 rev/day^2 Epoch rev: 3701 Checksum: 299
Satellite: HORYU-2 Catalog number: 38340 Epoch time: 12306.85624717 Element set: 216 Inclination: 098.1898 deg RA of node: 247.0006 deg Eccentricity: 0.0011676 Arg of perigee: 253.9838 deg Mean anomaly: 105.9975 deg Mean motion: 14.70342946 rev/day Decay rate: 7.78e-06 rev/day^2 Epoch rev: 2470 Checksum: 323
Satellite: RS-40 Catalog number: 38736 Epoch time: 12306.09794330 Element set: 94 Inclination: 082.4748 deg RA of node: 297.3433 deg Eccentricity: 0.0020062 Arg of perigee: 104.3231 deg Mean anomaly: 256.0089 deg Mean motion: 12.42647198 rev/day Decay rate: 1.0e-07 rev/day^2 Epoch rev: 1191 Checksum: 277
Satellite: PROITERES Catalog number: 38756 Epoch time: 12306.78745394 Element set: 188 Inclination: 098.2805 deg RA of node: 013.4031 deg Eccentricity: 0.0013724 Arg of perigee: 108.5375 deg Mean anomaly: 251.7290 deg Mean motion: 14.73949838 rev/day Decay rate: 8.12e-06 rev/day^2 Epoch rev: 789 Checksum: 321
Satellite: AENEAS Catalog number: 38760 Epoch time: 12306.36056343 Element set: 0054 Inclination: 064.6729 deg RA of node: 252.1711 deg Eccentricity: 0.0217993 Arg of perigee: 275.8576 deg Mean anomaly: 081.7617 deg Mean motion: 14.79457199 rev/day Decay rate: 6.658e-05 rev/day^2 Epoch rev: 00715 Checksum: 331
Satellite: CSSWE-D Catalog number: 38761 Epoch time: 12306.35798675 Element set: 0050 Inclination: 064.6739 deg RA of node: 252.1643 deg Eccentricity: 0.0219235 Arg of perigee: 275.9195 deg Mean anomaly: 081.6918 deg Mean motion: 14.79409121 rev/day Decay rate: 4.133e-05 rev/day^2 Epoch rev: 00715 Checksum: 314
Satellite: CXBN-E Catalog number: 38762 Epoch time: 12306.35620411 Element set: 0049 Inclination: 064.6703 deg RA of node: 252.1550 deg Eccentricity: 0.0218179 Arg of perigee: 275.8294 deg Mean anomaly: 081.7824 deg Mean motion: 14.79492911 rev/day Decay rate: 4.191e-05 rev/day^2 Epoch rev: 00715 Checksum: 298
Satellite: OBJECT F Catalog number: 38763 Epoch time: 12306.35611363 Element set: 0046 Inclination: 064.6731 deg RA of node: 252.1540 deg Eccentricity: 0.0219566 Arg of perigee: 276.0021 deg Mean anomaly: 081.6004 deg Mean motion: 14.79454679 rev/day Decay rate: 3.851e-05 rev/day^2 Epoch rev: 00699 Checksum: 294
Satellite: CINEMA-G Catalog number: 38764 Epoch time: 12306.35566432 Element set: 0046 Inclination: 064.6722 deg RA of node: 252.1480 deg Eccentricity: 0.0219177 Arg of perigee: 275.9605 deg Mean anomaly: 081.6507 deg Mean motion: 14.79480764 rev/day Decay rate: 4.241e-05 rev/day^2 Epoch rev: 00715 Checksum: 304
Satellite: CP5 Catalog number: 38765 Epoch time: 12306.44271135 Element set: 0046 Inclination: 064.6737 deg RA of node: 251.8638 deg Eccentricity: 0.0218746 Arg of perigee: 275.7675 deg Mean anomaly: 193.8868 deg Mean motion: 14.79573998 rev/day Decay rate: 3.983e-05 rev/day^2 Epoch rev: 00716 Checksum: 366
Satellite: RAIKO Catalog number: 38852 Epoch time: 12306.89293625 Element set: 26 Inclination: 051.6611 deg RA of node: 157.0864 deg Eccentricity: 0.0018848 Arg of perigee: 223.3508 deg Mean anomaly: 136.6000 deg Mean motion: 15.53250527 rev/day Decay rate: 2.7483e-04 rev/day^2 Epoch rev: 432 Checksum: 284
Satellite: FITSAT 1 Catalog number: 38853 Epoch time: 12306.88956816 Element set: 28 Inclination: 051.6480 deg RA of node: 157.0628 deg Eccentricity: 0.0015249 Arg of perigee: 237.3513 deg Mean anomaly: 122.5888 deg Mean motion: 15.53650536 rev/day Decay rate: 3.6941e-04 rev/day^2 Epoch rev: 437 Checksum: 316
Satellite: TechEdSat Catalog number: 38854 Epoch time: 12306.81817234 Element set: 30 Inclination: 051.6472 deg RA of node: 157.3350 deg Eccentricity: 0.0015127 Arg of perigee: 234.8088 deg Mean anomaly: 125.1480 deg Mean motion: 15.54419795 rev/day Decay rate: 4.6636e-04 rev/day^2 Epoch rev: 436 Checksum: 291
Satellite: F 1 Catalog number: 38855 Epoch time: 12306.75500478 Element set: 31 Inclination: 051.6463 deg RA of node: 157.6570 deg Eccentricity: 0.0012899 Arg of perigee: 242.0038 deg Mean anomaly: 117.9372 deg Mean motion: 15.54323784 rev/day Decay rate: 4.8543e-04 rev/day^2 Epoch rev: 424 Checksum: 299
Satellite: WeWish Catalog number: 38856 Epoch time: 12306.80798901 Element set: 40 Inclination: 051.6475 deg RA of node: 157.2674 deg Eccentricity: 0.0019568 Arg of perigee: 225.4801 deg Mean anomaly: 134.4560 deg Mean motion: 15.55680274 rev/day Decay rate: 7.0080e-04 rev/day^2 Epoch rev: 425 Checksum: 298
/EX
participants (1)
-
Ray Hoad